Regional Weather Roundup
Issued by NWS

Home | Current Version | Previous Version | Graphics & Text | Print | Product List | Glossary On
Versions: 1 2 3 4 5 6 7 8 9 10 11 12 13 14 15 16 17 18 19 20 21 22 23 24 25 26 27 28 29 30 31 32 33 34 35 36 37 38 39 40 41 42 43 44 45 46 47 48 49 50
000
ASUS45 KBOU 281507
RWRCO

WEATHER ROUNDUP FOR COLORADO
NATIONAL WEATHER SERVICE DENVER/BOULDER CO
900 AM MDT THU AUG 28 2014

NOTE: "FAIR" INDICATES FEW OR NO CLOUDS BELOW 12000 FEET WITH NO
SIGNIFICANT WEATHER AND/OR OBSTRUCTIONS TO VISIBILITY.

COZ001>005-013-030-031-281600-
...NORTHWEST COLORADO...

CITY           SKY/WX    TMP DP  RH WIND       PRES   REMARKS
CRAIG          CLOUDY    54  51  90 VRB3      30.30S
HAYDEN         CLOUDY    52  46  82 SW5       30.31R
MEEKER         CLOUDY    53  49  86 CALM      30.32R
MOUNT WERNER   NOT AVBL
STEAMBOAT SPGS CLOUDY    49  48  98 CALM      30.32R
WALDEN         CLOUDY    50  45  81 CALM      30.33S
$$

COZ006>008-011-281600-
...WEST CENTRAL VALLEYS...

CITY           SKY/WX    TMP DP  RH WIND       PRES   REMARKS
GRAND JUNCTION PTSUNNY   59  53  80 SE6       30.26R
MONTROSE       CLOUDY    56  52  86 S5        30.33R
EAGLE          CLOUDY    55  48  76 CALM      30.32R
RIFLE          CLOUDY    55  52  89 W9        30.28S
DELTA          NOT AVBL
NUCLA          NOT AVBL
$$

COZ017>023-064>068-281600-
...SOUTHWEST COLORADO...

CITY           SKY/WX    TMP DP  RH WIND       PRES   REMARKS
DURANGO        SUNNY     52  44  74 NE3       30.30S
CORTEZ         SUNNY     57  49  74 CALM      30.30F
PAGOSA SPRINGS SUNNY     53  40  61 CALM      30.34S
TELLURIDE      NOT AVBL
WOLF CREEK PAS MOSUNNY   39  34  81 W8        30.51F
$$

COZ009-010-012-014-032>034-037-058>063-281600-
...CENTRAL COLORADO...

CITY           SKY/WX    TMP DP  RH WIND       PRES   REMARKS
ASPEN          CLOUDY    49  46  90 N5        30.35S
BUENA VISTA    PTSUNNY   54  40  58 CALM      30.30F
COPPER MTN     SNOW      37  36  93 W17G26    30.50R VSB<1/4
BERTHOUD PASS  FOG       32  30  93 NW18G38   30.51R VSB<1/4 WCI  20
COTTONWOOD PAS PTSUNNY   52  36  54 W9G21     30.39S
GUNNISON       CLOUDY    50  45  81 CALM      30.36S
KREMMLING      CLOUDY    52  45  76 CALM      30.33S
LEADVILLE      PTSUNNY   44  38  79 N3        30.39S
SALIDA         PTSUNNY   58  42  54 N6        30.35S
SUNLIGHT       FOG       41  41 100 CALM      30.49S VSB<1/4
WILKERSON PASS NOT AVBL
$$

COZ069>075-281600-
...SAN LUIS VALLEY/SANGRE DE CRISTO MOUNTAINS...

CITY           SKY/WX    TMP DP  RH WIND       PRES   REMARKS
ALAMOSA        CLOUDY    53  41  63 CALM      30.31S
LA VETA PASS   NOT AVBL
SAGUACHE       CLOUDY    52  43  71 NW3       30.33S
$$

COZ035-036-038>040-281600-
...NORTHERN COLORADO FRONT RANGE...

CITY           SKY/WX    TMP DP  RH WIND       PRES   REMARKS
DENVER INTL AP MOSUNNY   63  50  62 SW12      30.14S
DMNS CITY PARK   N/A     63  48  56 S5        30.14R
AURORA         MOSUNNY   61  49  63 SW10      30.15F
FRONT RANGE AP NOT AVBL
ERIE MUNI ARPT MOSUNNY   61  54  77 N5        30.14R
BOULDER MUN AP MOSUNNY   61  52  72 N6        30.14R
CENTENNIAL     MOSUNNY   62  45  53 S8        30.16F
BROOMFIELD     PTSUNNY   63  50  63 CALM      30.16R
FORT COLLINS   SUNNY     63  54  72 CALM      30.15R
LONGMONT       CLOUDY    65  53  66 N3        30.15R
$$

COZ041-046-047-076>085-087-088-281600-
...PIKES PEAK/PALMER DIVIDE AND SOUTHERN FOOTHILLS...

CITY           SKY/WX    TMP DP  RH WIND       PRES   REMARKS
COLO. SPRINGS  PTSUNNY   65  43  44 CALM      30.20S
A. F. ACADEMY  MOSUNNY   59  44  56 CALM      30.21S
ELLICOTT       MOSUNNY   62  48  60 N5        30.18F
FALCON         MOSUNNY   61  42  49 CALM      30.23S
FORT CARSON    MOSUNNY   64  48  56 SW3       30.18S
LIMON          MOSUNNY   64  50  60 N8        30.14S
MONUMENT HILL  SUNNY     59  45  58 S6        30.21F
TRINIDAD       MOSUNNY   61  44  53 W9        30.18S
$$

COZ042>045-048>051-090-091-281600-
...NORTHEAST COLORADO...

CITY           SKY/WX    TMP DP  RH WIND       PRES   REMARKS
GREELEY ARPT   MOSUNNY   63  48  59 CALM      30.13S
AKRON          SUNNY     62  54  74 NW13      30.10S
BURLINGTON     SUNNY     67  58  72 NW13      30.06F
WRAY             N/A     68  59  73 NW14      30.04S
STERLING       PTSUNNY   68  55  64 NW9G17    30.07R
HOLYOKE        MOSUNNY   68  61  77 NW9       30.04S
FORT MORGAN    SUNNY     64  52  66 W15       30.11S
$$

COZ086-089-092>099-281600-
...SOUTHEAST COLORADO...

CITY           SKY/WX    TMP DP  RH WIND       PRES   REMARKS
PUEBLO         MOSUNNY   67  51  56 VRB3      30.12F
LA JUNTA       SUNNY     68  55  63 W7        30.09F
LAMAR          SUNNY     70  57  63 NW10      30.05S
SPRINGFIELD      N/A     68  56  65 NW12      30.07F
$$


USA.gov is the U.S. government's official web portal to all federal, state and local government web resources and services.